Weather in Zyukayka

Russia / Perm Krai     58°12′17″N   54°42′42″E
temp.,
°C
wind,
m/s
gust,
m/s
humid.,
%
clouds,
%
prec.,
mm/h
press.,
hPa
HPBL,
m
27 february, sat
sat2723:00−20sse4129594 0.0 1017376
02:00−20se5139478 0.0 1015406
05:00−19se5139389 0.0 1013462
08:00−19ese51290100 0.0 1010432
11:00−17ese51089100 0.0 1009480
14:00−14ese5990100 0.1 1007532
17:00−13e5990100 0.3 1008664
20:00−15ene41094100 0.1 1008476
28 february, sun
sun2823:00−17e41094100 0.2 1009397
02:00−21ene489599 0.0 1009257
05:00−22ne489692 0.0 1010238
08:00−23ne489785 0.0 1010232
11:00−19ne489289 0.0 1010382
14:00−16ne4789100 0.0 1010528
17:00−14ne4889100 0.1 1012674
20:00−15ne3895100 0.1 1013276
1 march, mon
mon123:00−19ne239789 0.1 101642
02:00−22ne23960 0.0 101732
05:00−24nne23950 0.0 101932
08:00−25nne22950 0.0 102020
11:00−19nne23890 0.0 1021192
14:00−14ne118327 0.0 1020347
17:00−13wnw128559 0.0 1019319
20:00−18s229323 0.0 101820
2 march, tue
tue223:00−19ssw339612 0.0 101846
02:00−20ssw36984 0.0 1016110
05:00−19s489720 0.0 1014199
08:00−18s5109395 0.0 1011310
11:00−17s6129298 0.0 1009362
14:00−13s61292100 0.3 1007473
17:00−12s61292100 0.8 1006550
20:00−13s51194100 0.6 1005602
3 march, wed
wed323:00−13s41094100 0.9 1005508
02:00−13s3995100 0.3 1004407
05:00−13sse3895100 0.6 1004317
08:00−13sse3795100 0.1 1003284
11:00−12sse2493100 0.4 1004329
14:00−10sse2389100 0.3 1003394
17:00−9se1292100 0.7 1003244
20:00−11e1197100 0.3 100321